Location: Castro Valley
(37.6940°N, 122.0850°W)
Time: 22:54:00
(UTC-07:00)

Amateur Radio Satellites - All Passes

Search period start: 22 October 2014 22:24
Search period end: 23 October 2014 22:24
Location: Castro Valley, 37.6940°N, 122.0850°W

Satellite Date Start Highest point End Downlink Frequencies (MHz)
Time Altitude Azimuth
KITSAT 1 22 Oct 22:42:42 22:50:47 78° 244° (WSW) 22:58:49 435.175 FM
ZACube-1 22 Oct 22:46:00 22:50:37 84° 258° (WSW) 22:55:12 437.345 MHz
UKube-1 22 Oct 22:56:54 23:00:17 22° 265° (W) 23:03:41 145.840 MHz, 145.915 MHz
HO-68 22 Oct 23:17:39 23:20:21 12° 271° (W) 23:23:04 435.675 MHz FM
FUNcube-1 22 Oct 23:32:13 23:36:05 26° 264° (W) 23:39:56 145.950 - 145.970 MHz USB
UOSAT-12 22 Oct 23:39:27 23:43:18 24° 49° (NE) 23:47:06 437.025 FM, 437.400 FM
SO-50 22 Oct 23:44:03 23:48:24 33° 247° (WSW) 23:52:45 436.795 FM
RS-15 23 Oct 00:07:01 00:17:44 56° 308° (NW) 00:28:28 29.354 - 29.394 USB, Beacon 29.352 USB
Oscar 10/S400 23 Oct 00:28:13 01:36:41 33° 233° (SW) 05:48:26 145.825 - 145.975 CW/USB, Beacon 145.810 USB
MaSat-1 23 Oct 00:37:44 00:42:01 82° 293° (WNW) 00:45:55 437.345 MHz
KITSAT 1 23 Oct 00:41:45 00:44:50 13° 261° (W) 00:47:55 435.175 FM
UOSAT-12 23 Oct 01:19:12 01:23:33 38° 246° (WSW) 01:27:49 437.025 FM, 437.400 FM
Oscar 16 23 Oct 01:47:31 01:51:28 22° 95° (E) 01:55:24 437.025 USB, Beacon 2401.1428
JAS-1B 23 Oct 01:59:39 02:05:37 31° 98° (E) 02:12:28 435.800 - 435.900 CW/SSB
AO-Echo 23 Oct 01:59:46 02:02:51 15° 91° (E) 02:05:54 ?
Uribyol 2 23 Oct 02:04:51 02:07:09 13° 91° (E) 02:09:25 436.500 FM
ITAMSAT 1 23 Oct 02:10:05 02:12:41 14° 91° (E) 02:15:16 435.822 SSB
RS-15 23 Oct 02:26:00 02:33:17 19° 337° (NNW) 02:40:39 29.354 - 29.394 USB, Beacon 29.352 USB
Oscar 19 23 Oct 02:40:26 02:45:34 75° 102° (ESE) 02:50:40 437.125 CW, 437.150 USB
AO-27 23 Oct 02:53:19 02:58:12 39° 98° (E) 03:03:03 436.795 MHz FM
Sapphire 23 Oct 03:23:53 03:26:57 15° 104° (ESE) 03:30:02 437.095 MHz 1200 baud AX-25 AFSK
Oscar 16 23 Oct 03:26:11 03:30:55 39° 290° (WNW) 03:35:38 437.025 USB, Beacon 2401.1428
AO-Echo 23 Oct 03:36:43 03:41:57 60° 286° (WNW) 03:47:09 ?
Uribyol 2 23 Oct 03:41:53 03:47:04 68° 286° (WNW) 03:52:12 436.500 FM
PCSat 23 Oct 03:44:59 03:49:29 27° 108° (ESE) 03:53:59 145.825 MHz
ITAMSAT 1 23 Oct 03:47:24 03:52:35 64° 287° (WNW) 03:57:43 435.822 SSB
JAS-1B 23 Oct 03:50:00 03:56:13 45° 290° (WNW) 04:03:33 435.800 - 435.900 CW/SSB
Gurwin Techsat 1B 23 Oct 03:55:38 04:00:59 80° 103° (ESE) 04:06:17 435.225 FM
TMSAT-1 23 Oct 04:08:09 04:13:29 78° 103° (ESE) 04:18:47 436.925 FM
OPAL 23 Oct 04:21:13 04:24:56 21° 63° (ENE) 04:28:38 ?
Oscar 19 23 Oct 04:22:05 04:24:14 13° 298° (WNW) 04:26:23 437.125 CW, 437.150 USB
AO-7 23 Oct 04:23:26 04:30:14 27° 96° (E) 04:36:59 29.400 - 29.500 MHz
AO-27 23 Oct 04:33:20 04:37:27 24° 294° (WNW) 04:41:34 436.795 MHz FM
RS-15 23 Oct 04:45:25 04:51:58 17° 15° (NNE) 04:58:37 29.354 - 29.394 USB, Beacon 29.352 USB
Sapphire 23 Oct 05:04:25 05:09:46 64° 300° (WNW) 05:15:10 437.095 MHz 1200 baud AX-25 AFSK
Uosat F 23 Oct 05:19:58 05:24:55 53° 101° (E) 05:29:49 435.120 FM
PCSat 23 Oct 05:27:41 05:32:41 38° 304° (NW) 05:37:44 145.825 MHz
Gurwin Techsat 1B 23 Oct 05:38:04 05:40:13 13° 299° (WNW) 05:42:21 435.225 FM
JAS-2 23 Oct 05:48:50 05:55:50 35° 95° (E) 06:02:47 435.800 - 435.900 CW/SSB, 435.910 FM
TMSAT-1 23 Oct 05:50:24 05:52:42 13° 299° (WNW) 05:54:59 436.925 FM
OPAL 23 Oct 05:58:30 06:03:28 47° 258° (WSW) 06:08:24 ?
STRAND 1 23 Oct 06:02:46 06:06:16 19° 64° (ENE) 06:09:47 ?
Hamsat 23 Oct 06:08:53 06:12:06 21° 95° (E) 06:15:19 145.90 MHz
AO-7 23 Oct 06:15:15 06:23:24 62° 293° (WNW) 06:31:32 29.400 - 29.500 MHz
Sapphire 23 Oct 06:53:26 06:54:17 10° 319° (NW) 06:55:09 437.095 MHz 1200 baud AX-25 AFSK
RS-15 23 Oct 06:57:58 07:08:28 44° 47° (NE) 07:19:18 29.354 - 29.394 USB, Beacon 29.352 USB
Uosat F 23 Oct 07:00:01 07:03:14 17° 296° (WNW) 07:06:26 435.120 FM
Saudisat 1A 23 Oct 07:04:27 07:06:05 12° 108° (ESE) 07:07:43 436.775 MHz
JAS-2 23 Oct 07:33:31 07:40:51 48° 291° (WNW) 07:48:15 435.800 - 435.900 CW/SSB, 435.910 FM
STRAND 1 23 Oct 07:40:06 07:45:03 49° 260° (W) 07:50:02 ?
Hamsat 23 Oct 07:44:26 07:48:01 28° 289° (WNW) 07:51:35 145.90 MHz
AO-7 23 Oct 08:11:27 08:14:30 13° 312° (NW) 08:17:33 29.400 - 29.500 MHz
SO-67 23 Oct 08:36:44 08:40:01 42° 285° (WNW) 08:43:16 435.3500 MHz FM
Saudisat 1A 23 Oct 08:40:46 08:45:05 61° 303° (WNW) 08:49:28 436.775 MHz
PANSAT 23 Oct 08:46:56 08:49:17 16° 168° (SSE) 08:51:39 not established
HO-68 23 Oct 08:55:47 09:00:52 20° 93° (E) 09:05:55 435.675 MHz FM
RS-15 23 Oct 09:10:18 09:21:07 57° 248° (WSW) 09:32:26 29.354 - 29.394 USB, Beacon 29.352 USB
Oscar 11 23 Oct 09:54:01 09:56:43 16° 93° (E) 09:59:24 145.825 FM, Beacon 2401.500 USB
PANSAT 23 Oct 10:25:58 10:28:51 20° 181° (S) 10:31:44 not established
MaSat-1 23 Oct 10:26:19 10:28:50 53° 248° (WSW) 10:31:11 437.345 MHz
ZACube-1 23 Oct 10:38:13 10:41:25 21° 94° (E) 10:44:33 437.345 MHz
HO-68 23 Oct 10:41:56 10:49:05 68° 289° (WNW) 10:56:11 435.675 MHz FM
UKube-1 23 Oct 10:45:42 10:50:05 71° 102° (ESE) 10:54:25 145.840 MHz, 145.915 MHz
Oscar 10/S400 23 Oct 10:49:46 11:11:36 19° 155° (SSE) 11:24:22 145.825 - 145.975 CW/USB, Beacon 145.810 USB
KITSAT 1 23 Oct 11:16:52 11:21:51 18° 101° (ESE) 11:26:51 435.175 FM
FUNcube-1 23 Oct 11:22:33 11:26:49 70° 101° (ESE) 11:30:57 145.950 - 145.970 MHz USB
Oscar 11 23 Oct 11:29:02 11:33:02 38° 288° (WNW) 11:37:00 145.825 FM, Beacon 2401.500 USB
PANSAT 23 Oct 12:06:19 12:08:24 14° 194° (SSW) 12:10:30 not established
Sapphire 23 Oct 12:13:40 12:15:12 11° 42° (NE) 12:16:43 437.095 MHz 1200 baud AX-25 AFSK
ZACube-1 23 Oct 12:14:09 12:17:49 29° 290° (WNW) 12:21:25 437.345 MHz
SO-50 23 Oct 12:19:30 12:21:11 12° 107° (ESE) 12:22:53 436.795 FM
Oscar 19 23 Oct 12:21:29 12:22:01 10° 60° (ENE) 12:22:33 437.125 CW, 437.150 USB
UKube-1 23 Oct 12:25:08 12:25:39 10° 298° (WNW) 12:26:09 145.840 MHz, 145.915 MHz
ISS 23 Oct 12:29:52 12:32:11 18° 130° (SE) 12:34:31 145.800 FM
HO-68 23 Oct 12:32:58 12:35:27 12° 307° (NW) 12:37:56 435.675 MHz FM
PCSat 23 Oct 12:34:51 12:38:26 18° 47° (NE) 12:41:59 145.825 MHz
JAS-1B 23 Oct 12:46:22 12:50:12 18° 63° (ENE) 12:53:54 435.800 - 435.900 CW/SSB
Oscar 16 23 Oct 13:02:40 13:07:00 28° 68° (ENE) 13:11:20 437.025 USB, Beacon 2401.1428
KITSAT 1 23 Oct 13:08:08 13:16:13 84° 299° (WNW) 13:24:21 435.175 FM
AO-Echo 23 Oct 13:11:30 13:14:23 16° 63° (ENE) 13:17:19 ?
Uribyol 2 23 Oct 13:20:37 13:24:02 18° 64° (ENE) 13:27:27 436.500 FM
ITAMSAT 1 23 Oct 13:26:05 13:29:39 19° 64° (ENE) 13:33:13 435.822 SSB
Gurwin Techsat 1B 23 Oct 13:38:43 13:40:56 13° 61° (ENE) 13:43:09 435.225 FM
TMSAT-1 23 Oct 13:51:12 13:53:10 12° 61° (ENE) 13:55:09 436.925 FM
Sapphire 23 Oct 13:54:13 13:59:39 68° 61° (ENE) 14:05:02 437.095 MHz 1200 baud AX-25 AFSK
Oscar 19 23 Oct 13:55:22 14:00:32 88° 76° (ENE) 14:05:43 437.125 CW, 437.150 USB
SO-50 23 Oct 13:56:41 14:01:07 63° 303° (WNW) 14:05:42 436.795 FM
ISS 23 Oct 14:05:28 14:08:39 42° 325° (NW) 14:11:51 145.800 FM
AO-27 23 Oct 14:09:34 14:14:34 49° 72° (ENE) 14:19:36 436.795 MHz FM
PCSat 23 Oct 14:16:58 14:22:23 71° 245° (WSW) 14:27:45 145.825 MHz
JAS-1B 23 Oct 14:34:28 14:40:30 55° 259° (WSW) 14:46:05 435.800 - 435.900 CW/SSB
Oscar 16 23 Oct 14:41:37 14:46:13 32° 263° (W) 14:50:49 437.025 USB, Beacon 2401.1428
AO-Echo 23 Oct 14:47:53 14:52:37 55° 260° (W) 14:57:32 ?
Uribyol 2 23 Oct 14:57:57 15:03:02 54° 259° (W) 15:08:10 436.500 FM
ITAMSAT 1 23 Oct 15:03:40 15:08:42 51° 260° (W) 15:13:48 435.822 SSB
KITSAT 1 23 Oct 15:07:01 15:12:50 21° 320° (NW) 15:18:41 435.175 FM
Gurwin Techsat 1B 23 Oct 15:14:52 15:20:10 79° 257° (WSW) 15:25:31 435.225 FM
AO-7 23 Oct 15:20:37 15:27:43 33° 60° (ENE) 15:34:49 29.400 - 29.500 MHz
TMSAT-1 23 Oct 15:27:02 15:32:20 83° 257° (WSW) 15:37:40 436.925 FM
UOSAT-12 23 Oct 15:27:54 15:32:31 83° 300° (WNW) 15:37:15 437.025 FM, 437.400 FM
Sapphire 23 Oct 15:39:37 15:42:25 14° 257° (WSW) 15:45:12 437.095 MHz 1200 baud AX-25 AFSK
ISS 23 Oct 15:45:06 15:46:03 11° 344° (NNW) 15:47:01 145.800 FM
AO-27 23 Oct 15:50:49 15:54:19 18° 267° (W) 15:57:50 436.795 MHz FM
Uosat F 23 Oct 16:31:18 16:36:14 61° 73° (ENE) 16:41:12 435.120 FM
Hamsat 23 Oct 17:01:53 17:03:47 13° 66° (ENE) 17:05:42 145.90 MHz
Saudisat 1A 23 Oct 17:09:05 17:13:28 60° 57° (ENE) 17:17:49 436.775 MHz
UOSAT-12 23 Oct 17:11:37 17:13:25 12° 319° (NW) 17:15:14 437.025 FM, 437.400 FM
AO-7 23 Oct 17:12:06 17:20:06 54° 258° (WSW) 17:28:11 29.400 - 29.500 MHz
JAS-2 23 Oct 17:43:20 17:49:03 68° 73° (ENE) 17:55:35 435.800 - 435.900 CW/SSB, 435.910 FM
OPAL 23 Oct 18:10:09 18:15:00 52° 102° (ESE) 18:19:48 ?
Uosat F 23 Oct 18:12:55 18:15:23 14° 268° (W) 18:17:52 435.120 FM
Hamsat 23 Oct 18:35:12 18:39:18 49° 261° (W) 18:43:23 145.90 MHz
Saudisat 1A 23 Oct 18:50:41 18:52:29 12° 252° (WSW) 18:54:18 436.775 MHz
ISS 23 Oct 18:59:38 19:01:56 17° 25° (NNE) 19:04:13 145.800 FM
SO-67 23 Oct 19:07:15 19:10:28 39° 74° (ENE) 19:13:42 435.3500 MHz FM
HO-68 23 Oct 19:25:09 19:28:22 14° 54° (NE) 19:31:36 435.675 MHz FM
JAS-2 23 Oct 19:31:28 19:34:54 16° 273° (W) 19:38:34 435.800 - 435.900 CW/SSB, 435.910 FM
OPAL 23 Oct 19:50:17 19:53:27 17° 298° (WNW) 19:56:36 ?
STRAND 1 23 Oct 19:52:24 19:57:32 66° 102° (ESE) 20:02:38 ?
ISS 23 Oct 20:35:37 20:38:56 72° 222° (SW) 20:42:15 145.800 FM
Oscar 11 23 Oct 20:49:10 20:50:20 11° 64° (ENE) 20:51:31 145.825 FM, Beacon 2401.500 USB
SO-50 23 Oct 20:52:07 20:53:14 11° 39° (NE) 20:54:20 436.795 FM
KITSAT 1 23 Oct 21:03:48 21:11:06 36° 49° (NE) 21:18:21 435.175 FM
HO-68 23 Oct 21:07:45 21:14:52 76° 72° (ENE) 21:22:03 435.675 MHz FM
RS-15 23 Oct 21:21:27 21:30:14 29° 104° (ESE) 21:38:53 29.354 - 29.394 USB, Beacon 29.352 USB
STRAND 1 23 Oct 21:33:23 21:36:08 15° 298° (WNW) 21:38:53 ?
ZACube-1 23 Oct 21:33:28 21:36:13 16° 66° (ENE) 21:38:58 437.345 MHz
UKube-1 23 Oct 21:39:13 21:43:23 47° 73° (ENE) 21:47:35 145.840 MHz, 145.915 MHz
